Time,TemperatureF,DewpointF,PressureIn,WindDirection,WindDirectionDegrees,WindSpeedMPH,WindSpeedGustMPH,Humidity,HourlyPrecipIn,Conditions,Clouds,dailyrainin,SoftwareType,DateUTC
2013-01-23 00:04:00,20.9,12.2,30.32,SSE,158,0.4,1.3,69,0.00,,,0.00,WUHU216HW,2013-01-23 07:04:00,
2013-01-23 00:09:00,20.9,12.2,30.32,SSE,158,0.0,1.3,69,0.00,,,0.00,WUHU216HW,2013-01-23 07:09:00,
2013-01-23 00:14:00,20.7,12.1,30.32,SSE,158,0.0,0.7,69,0.00,,,0.00,WUHU216HW,2013-01-23 07:14:00,
2013-01-23 00:19:00,20.5,11.9,30.32,SSE,158,0.4,1.3,69,0.00,,,0.00,WUHU216HW,2013-01-23 07:19:00,
2013-01-23 00:24:00,20.5,11.9,30.32,SSE,158,0.4,1.3,69,0.00,,,0.00,WUHU216HW,2013-01-23 07:24:00,
2013-01-23 00:29:00,20.3,11.7,30.32,SSE,158,0.4,1.3,69,0.00,,,0.00,WUHU216HW,2013-01-23 07:29:00,
2013-01-23 00:34:00,20.2,11.5,30.32,SSE,158,0.0,1.1,69,0.00,,,0.00,WUHU216HW,2013-01-23 07:34:00,
2013-01-23 00:39:00,19.8,11.2,30.32,WNW,293,1.1,1.1,69,0.00,,,0.00,WUHU216HW,2013-01-23 07:39:00,
2013-01-23 00:44:00,19.6,11.0,30.32,NNW,338,0.0,1.1,69,0.00,,,0.00,WUHU216HW,2013-01-23 07:44:00,
2013-01-23 00:49:00,19.4,11.2,30.32,NW,315,0.0,1.1,70,0.00,,,0.00,WUHU216HW,2013-01-23 07:49:00,
2013-01-23 00:54:00,19.4,11.2,30.32,SSE,158,1.1,1.1,70,0.00,,,0.00,WUHU216HW,2013-01-23 07:54:00,
2013-01-23 00:59:00,19.4,11.2,30.32,SSE,158,0.7,1.1,70,0.00,,,0.00,WUHU216HW,2013-01-23 07:59:00,
2013-01-23 01:04:00,19.4,11.2,30.32,SSE,158,0.7,1.3,70,0.00,,,0.00,WUHU216HW,2013-01-23 08:04:00,
2013-01-23 01:09:00,19.3,11.0,30.32,SSE,158,1.1,1.8,70,0.00,,,0.00,WUHU216HW,2013-01-23 08:09:00,
2013-01-23 01:14:00,19.1,10.8,30.32,SSE,158,0.4,1.8,70,0.00,,,0.00,WUHU216HW,2013-01-23 08:14:00,
2013-01-23 01:19:00,19.1,10.8,30.31,SSW,203,1.6,1.8,70,0.00,,,0.00,WUHU216HW,2013-01-23 08:19:00,
2013-01-23 01:24:00,18.9,11.0,30.32,SSW,203,0.0,1.8,71,0.00,,,0.00,WUHU216HW,2013-01-23 08:24:00,
2013-01-23 01:29:00,18.9,11.0,30.32,SSW,203,0.0,1.3,71,0.00,,,0.00,WUHU216HW,2013-01-23 08:29:00,
2013-01-23 01:34:00,18.9,11.0,30.32,South,180,0.7,1.8,71,0.00,,,0.00,WUHU216HW,2013-01-23 08:34:00,
2013-01-23 01:39:00,18.7,10.8,30.32,SSE,158,1.1,1.8,71,0.00,,,0.00,WUHU216HW,2013-01-23 08:39:00,
2013-01-23 01:44:00,18.7,10.8,30.32,SSE,158,0.9,1.8,71,0.00,,,0.00,WUHU216HW,2013-01-23 08:44:00,
2013-01-23 01:49:00,18.5,10.6,30.32,SSE,158,0.9,1.8,71,0.00,,,0.00,WUHU216HW,2013-01-23 08:49:00,
2013-01-23 01:54:00,18.4,10.4,30.32,South,180,0.7,1.6,71,0.00,,,0.00,WUHU216HW,2013-01-23 08:54:00,
2013-01-23 01:59:00,18.4,10.4,30.32,South,180,0.0,1.6,71,0.00,,,0.00,WUHU216HW,2013-01-23 08:59:00,
2013-01-23 02:04:00,18.4,10.4,30.32,South,180,0.0,1.3,71,0.00,,,0.00,WUHU216HW,2013-01-23 09:04:00,
2013-01-23 02:09:00,18.4,10.4,30.32,South,180,1.1,1.3,71,0.00,,,0.00,WUHU216HW,2013-01-23 09:09:00,
2013-01-23 02:14:00,18.2,10.4,30.32,South,180,1.6,1.6,71,0.00,,,0.00,WUHU216HW,2013-01-23 09:14:00,
2013-01-23 02:19:00,18.0,10.2,30.33,South,180,0.9,2.0,71,0.00,,,0.00,WUHU216HW,2013-01-23 09:19:00,
2013-01-23 02:24:00,18.0,10.2,30.33,SSE,158,0.4,2.0,71,0.00,,,0.00,WUHU216HW,2013-01-23 09:24:00,
2013-01-23 02:29:00,18.0,10.2,30.32,SSE,158,0.0,2.0,71,0.00,,,0.00,WUHU216HW,2013-01-23 09:29:00,
2013-01-23 02:34:00,17.8,10.0,30.32,SSE,158,0.0,0.7,71,0.00,,,0.00,WUHU216HW,2013-01-23 09:34:00,
2013-01-23 02:39:00,17.8,10.0,30.32,SSE,158,0.0,0.0,71,0.00,,,0.00,WUHU216HW,2013-01-23 09:39:00,
2013-01-23 02:44:00,17.8,10.0,30.32,South,180,1.1,1.1,71,0.00,,,0.00,WUHU216HW,2013-01-23 09:44:00,
2013-01-23 02:49:00,17.8,10.3,30.32,South,180,0.4,1.6,72,0.00,,,0.00,WUHU216HW,2013-01-23 09:49:00,
2013-01-23 02:54:00,17.6,10.1,30.32,South,180,1.1,1.6,72,0.00,,,0.00,WUHU216HW,2013-01-23 09:54:00,
2013-01-23 02:59:00,17.6,10.1,30.32,SSE,158,1.1,1.6,72,0.00,,,0.00,WUHU216HW,2013-01-23 09:59:00,
2013-01-23 03:04:00,17.6,10.1,30.32,SSE,158,1.3,1.8,72,0.00,,,0.00,WUHU216HW,2013-01-23 10:04:00,
2013-01-23 03:09:00,17.6,10.1,30.32,SE,135,0.9,1.8,72,0.00,,,0.00,WUHU216HW,2013-01-23 10:09:00,
2013-01-23 03:14:00,17.5,9.9,30.31,SSE,158,0.0,1.6,72,0.00,,,0.00,WUHU216HW,2013-01-23 10:14:00,
2013-01-23 03:19:00,17.5,9.9,30.31,SSE,158,0.0,0.9,72,0.00,,,0.00,WUHU216HW,2013-01-23 10:19:00,
2013-01-23 03:24:00,17.3,9.7,30.32,SSE,158,0.0,0.0,72,0.00,,,0.00,WUHU216HW,2013-01-23 10:24:00,
2013-01-23 03:29:00,17.3,10.1,30.32,SSE,158,0.0,0.0,73,0.00,,,0.00,WUHU216HW,2013-01-23 10:29:00,
2013-01-23 03:34:00,17.3,10.1,30.32,SSE,158,0.0,0.0,73,0.00,,,0.00,WUHU216HW,2013-01-23 10:34:00,
2013-01-23 03:39:00,17.3,10.1,30.32,South,180,1.6,1.8,73,0.00,,,0.00,WUHU216HW,2013-01-23 10:39:00,
2013-01-23 03:44:00,17.3,10.1,30.32,SSE,158,1.1,1.8,73,0.00,,,0.00,WUHU216HW,2013-01-23 10:44:00,
2013-01-23 03:49:00,17.3,10.1,30.32,SSE,158,0.7,1.6,73,0.00,,,0.00,WUHU216HW,2013-01-23 10:49:00,
2013-01-23 03:54:00,17.3,10.1,30.32,SSE,158,1.1,1.1,73,0.00,,,0.00,WUHU216HW,2013-01-23 10:54:00,
2013-01-23 03:59:00,17.1,9.9,30.32,South,180,1.8,1.8,73,0.00,,,0.00,WUHU216HW,2013-01-23 10:59:00,
2013-01-23 04:04:00,17.1,9.9,30.32,South,180,0.7,1.8,73,0.00,,,0.00,WUHU216HW,2013-01-23 11:04:00,
2013-01-23 04:09:00,17.1,10.2,30.32,SSE,158,0.0,1.8,74,0.00,,,0.00,WUHU216HW,2013-01-23 11:09:00,
2013-01-23 04:14:00,16.9,10.0,30.32,SSE,158,1.1,1.8,74,0.00,,,0.00,WUHU216HW,2013-01-23 11:14:00,
2013-01-23 04:19:00,16.9,10.0,30.32,South,180,0.2,1.8,74,0.00,,,0.00,WUHU216HW,2013-01-23 11:19:00,
2013-01-23 04:24:00,16.9,10.0,30.32,SSE,158,0.4,1.8,74,0.00,,,0.00,WUHU216HW,2013-01-23 11:24:00,
2013-01-23 04:29:00,16.9,10.0,30.32,SSE,158,0.0,0.9,74,0.00,,,0.00,WUHU216HW,2013-01-23 11:29:00,
2013-01-23 04:34:00,16.9,10.0,30.32,SSE,158,0.7,1.1,74,0.00,,,0.00,WUHU216HW,2013-01-23 11:34:00,
2013-01-23 04:39:00,16.9,10.0,30.32,South,180,1.6,1.6,74,0.00,,,0.00,WUHU216HW,2013-01-23 11:39:00,
2013-01-23 04:44:00,16.9,10.0,30.32,SSE,158,0.2,1.6,74,0.00,,,0.00,WUHU216HW,2013-01-23 11:44:00,
2013-01-23 04:49:00,16.9,10.0,30.32,SSE,158,0.0,1.6,74,0.00,,,0.00,WUHU216HW,2013-01-23 11:49:00,
2013-01-23 04:54:00,16.9,10.0,30.32,SSE,158,0.0,0.4,74,0.00,,,0.00,WUHU216HW,2013-01-23 11:54:00,
2013-01-23 04:59:00,16.9,10.0,30.32,South,180,0.9,0.9,74,0.00,,,0.00,WUHU216HW,2013-01-23 11:59:00,
2013-01-23 05:04:00,16.9,10.0,30.32,South,180,1.8,2.5,74,0.00,,,0.00,WUHU216HW,2013-01-23 12:04:00,
2013-01-23 05:09:00,16.9,10.0,30.32,SSE,158,0.0,2.5,74,0.00,,,0.00,WUHU216HW,2013-01-23 12:09:00,
2013-01-23 05:14:00,16.9,10.0,30.32,SSE,158,0.7,1.8,74,0.00,,,0.00,WUHU216HW,2013-01-23 12:14:00,
2013-01-23 05:19:00,17.1,10.2,30.31,SSE,158,0.0,1.1,74,0.00,,,0.00,WUHU216HW,2013-01-23 12:19:00,
2013-01-23 05:24:00,17.1,10.2,30.31,SSE,158,0.0,1.1,74,0.00,,,0.00,WUHU216HW,2013-01-23 12:24:00,
2013-01-23 05:29:00,17.1,10.2,30.31,South,180,0.7,1.1,74,0.00,,,0.00,WUHU216HW,2013-01-23 12:29:00,
2013-01-23 05:34:00,17.1,10.2,30.31,South,180,0.7,1.1,74,0.00,,,0.00,WUHU216HW,2013-01-23 12:34:00,
2013-01-23 05:39:00,17.1,10.2,30.31,SSE,158,0.7,1.1,74,0.00,,,0.00,WUHU216HW,2013-01-23 12:39:00,
2013-01-23 05:44:00,16.9,10.0,30.31,SSE,158,1.6,1.6,74,0.00,,,0.00,WUHU216HW,2013-01-23 12:44:00,
2013-01-23 05:49:00,17.1,10.2,30.32,South,180,0.7,1.6,74,0.00,,,0.00,WUHU216HW,2013-01-23 12:49:00,
2013-01-23 05:54:00,16.9,10.0,30.32,South,180,0.0,1.6,74,0.00,,,0.00,WUHU216HW,2013-01-23 12:54:00,
2013-01-23 05:59:00,16.9,10.0,30.32,South,180,0.0,1.1,74,0.00,,,0.00,WUHU216HW,2013-01-23 12:59:00,
2013-01-23 06:04:00,16.9,10.0,30.32,South,180,0.0,0.0,74,0.00,,,0.00,WUHU216HW,2013-01-23 13:04:00,
2013-01-23 06:09:00,16.9,10.0,30.32,South,180,0.0,0.0,74,0.00,,,0.00,WUHU216HW,2013-01-23 13:09:00,
2013-01-23 06:14:00,16.9,10.3,30.32,South,180,0.0,0.0,75,0.00,,,0.00,WUHU216HW,2013-01-23 13:14:00,
2013-01-23 06:19:00,16.9,10.3,30.32,South,180,0.0,0.0,75,0.00,,,0.00,WUHU216HW,2013-01-23 13:19:00,
2013-01-23 06:24:00,16.7,9.8,30.33,SSE,158,1.8,1.8,74,0.00,,,0.00,WUHU216HW,2013-01-23 13:24:00,
2013-01-23 06:29:00,16.6,9.6,30.33,South,180,0.7,1.8,74,0.00,,,0.00,WUHU216HW,2013-01-23 13:29:00,
2013-01-23 06:34:00,16.6,9.6,30.33,SSE,158,0.0,1.8,74,0.00,,,0.00,WUHU216HW,2013-01-23 13:34:00,
2013-01-23 06:39:00,16.2,9.3,30.33,SSE,158,0.0,1.3,74,0.00,,,0.00,WUHU216HW,2013-01-23 13:39:00,
2013-01-23 06:44:00,16.2,9.3,30.34,SSE,158,0.0,0.0,74,0.00,,,0.00,WUHU216HW,2013-01-23 13:44:00,
2013-01-23 06:49:00,16.2,9.3,30.33,SSE,158,0.0,0.0,74,0.00,,,0.00,WUHU216HW,2013-01-23 13:49:00,
2013-01-23 06:54:00,16.0,9.2,30.34,SSE,158,0.0,0.0,74,0.00,,,0.00,WUHU216HW,2013-01-23 13:54:00,
2013-01-23 06:59:00,16.0,9.5,30.34,SSE,158,0.0,0.0,75,0.00,,,0.00,WUHU216HW,2013-01-23 13:59:00,
2013-01-23 07:04:00,15.8,9.3,30.34,SSE,158,0.0,0.0,75,0.00,,,0.00,WUHU216HW,2013-01-23 14:04:00,
2013-01-23 07:09:00,15.8,9.3,30.34,South,180,1.6,1.6,75,0.00,,,0.00,WUHU216HW,2013-01-23 14:09:00,
2013-01-23 07:14:00,15.8,9.3,30.34,SSE,158,1.6,1.6,75,0.00,,,0.00,WUHU216HW,2013-01-23 14:14:00,
2013-01-23 07:19:00,15.7,9.1,30.34,SSE,158,1.3,1.8,75,0.00,,,0.00,WUHU216HW,2013-01-23 14:19:00,
2013-01-23 07:24:00,15.7,9.1,30.33,South,180,1.1,1.8,75,0.00,,,0.00,WUHU216HW,2013-01-23 14:24:00,
2013-01-23 07:29:00,15.5,8.9,30.33,SSW,203,0.4,1.8,75,0.00,,,0.00,WUHU216HW,2013-01-23 14:29:00,
2013-01-23 07:34:00,15.5,8.9,30.33,South,180,0.0,1.8,75,0.00,,,0.00,WUHU216HW,2013-01-23 14:34:00,
2013-01-23 07:39:00,15.5,8.9,30.33,South,180,0.0,1.1,75,0.00,,,0.00,WUHU216HW,2013-01-23 14:39:00,
2013-01-23 07:44:00,15.3,8.7,30.34,South,180,0.0,0.0,75,0.00,,,0.00,WUHU216HW,2013-01-23 14:44:00,
2013-01-23 07:49:00,15.1,8.6,30.34,South,180,1.3,1.6,75,0.00,,,0.00,WUHU216HW,2013-01-23 14:49:00,
2013-01-23 07:54:00,15.3,8.7,30.34,SSE,158,0.9,2.0,75,0.00,,,0.00,WUHU216HW,2013-01-23 14:54:00,
2013-01-23 07:59:00,15.5,8.9,30.34,SSE,158,0.7,2.0,75,0.00,,,0.00,WUHU216HW,2013-01-23 14:59:00,
2013-01-23 08:04:00,15.5,9.3,30.34,SSE,158,0.0,0.9,76,0.00,,,0.00,WUHU216HW,2013-01-23 15:04:00,
2013-01-23 08:09:00,15.7,9.4,30.34,SSE,158,0.0,0.7,76,0.00,,,0.00,WUHU216HW,2013-01-23 15:09:00,
2013-01-23 08:14:00,15.8,9.5,30.34,SSE,158,0.7,0.9,76,0.00,,,0.00,WUHU216HW,2013-01-23 15:14:00,
2013-01-23 08:19:00,16.0,9.7,30.34,SSE,158,0.0,0.9,76,0.00,,,0.00,WUHU216HW,2013-01-23 15:19:00,
2013-01-23 08:24:00,16.4,10.1,30.34,SSE,158,0.0,0.7,76,0.00,,,0.00,WUHU216HW,2013-01-23 15:24:00,
2013-01-23 08:29:00,16.7,10.5,30.34,SE,135,0.0,1.8,76,0.00,,,0.00,WUHU216HW,2013-01-23 15:29:00,
2013-01-23 08:34:00,17.1,11.1,30.34,SSE,158,0.4,1.8,77,0.00,,,0.00,WUHU216HW,2013-01-23 15:34:00,
2013-01-23 08:39:00,17.5,11.4,30.34,SSE,158,0.4,1.1,77,0.00,,,0.00,WUHU216HW,2013-01-23 15:39:00,
2013-01-23 08:44:00,18.0,12.3,30.34,NW,315,2.0,3.4,78,0.00,,,0.00,WUHU216HW,2013-01-23 15:44:00,
2013-01-23 08:49:00,18.5,12.7,30.34,South,180,0.2,3.4,78,0.00,,,0.00,WUHU216HW,2013-01-23 15:49:00,
2013-01-23 08:54:00,19.1,13.0,30.34,ESE,113,0.9,1.6,77,0.00,,,0.00,WUHU216HW,2013-01-23 15:54:00,
2013-01-23 08:59:00,19.8,14.0,30.34,NNW,338,0.4,1.6,78,0.00,,,0.00,WUHU216HW,2013-01-23 15:59:00,
2013-01-23 09:04:00,20.5,14.4,30.34,NNW,338,0.4,0.9,77,0.00,,,0.00,WUHU216HW,2013-01-23 16:04:00,
2013-01-23 09:09:00,21.2,15.1,30.34,SE,135,1.1,1.1,77,0.00,,,0.00,WUHU216HW,2013-01-23 16:09:00,
2013-01-23 09:14:00,22.1,16.0,30.34,SE,135,0.7,1.1,77,0.00,,,0.00,WUHU216HW,2013-01-23 16:14:00,
2013-01-23 09:19:00,23.0,16.9,30.34,SE,135,0.0,1.1,77,0.00,,,0.00,WUHU216HW,2013-01-23 16:19:00,
2013-01-23 09:24:00,24.1,17.9,30.34,SE,135,0.0,0.4,77,0.00,,,0.00,WUHU216HW,2013-01-23 16:24:00,
2013-01-23 09:29:00,25.0,18.5,30.34,North,0,0.0,0.0,76,0.00,,,0.00,WUHU216HW,2013-01-23 16:29:00,
2013-01-23 09:34:00,26.1,19.2,30.35,NNW,338,1.1,1.1,75,0.00,,,0.00,WUHU216HW,2013-01-23 16:34:00,
2013-01-23 09:39:00,27.5,20.4,30.35,NNW,338,0.4,1.8,74,0.00,,,0.00,WUHU216HW,2013-01-23 16:39:00,
2013-01-23 09:44:00,28.6,20.8,30.35,NNW,338,1.1,1.8,72,0.00,,,0.00,WUHU216HW,2013-01-23 16:44:00,
2013-01-23 09:49:00,29.9,21.2,30.35,North,0,1.1,1.6,70,0.00,,,0.00,WUHU216HW,2013-01-23 16:49:00,
2013-01-23 09:54:00,31.0,21.6,30.35,NW,315,0.4,1.6,68,0.00,,,0.00,WUHU216HW,2013-01-23 16:54:00,
2013-01-23 09:59:00,31.9,22.1,30.35,NNW,338,0.0,1.6,67,0.00,,,0.00,WUHU216HW,2013-01-23 16:59:00,
2013-01-23 10:04:00,32.9,22.8,30.35,NNW,338,0.0,1.1,66,0.00,,,0.00,WUHU216HW,2013-01-23 17:04:00,
2013-01-23 10:09:00,34.0,23.4,30.35,NNW,338,0.0,0.0,65,0.00,,,0.00,WUHU216HW,2013-01-23 17:09:00,
2013-01-23 10:14:00,35.1,23.4,30.35,West,270,0.4,0.4,62,0.00,,,0.00,WUHU216HW,2013-01-23 17:14:00,
2013-01-23 10:19:00,36.2,24.0,30.35,NW,315,0.0,0.4,61,0.00,,,0.00,WUHU216HW,2013-01-23 17:19:00,
2013-01-23 10:24:00,37.1,24.1,30.35,NW,315,0.0,0.4,59,0.00,,,0.00,WUHU216HW,2013-01-23 17:24:00,
2013-01-23 10:29:00,38.2,24.7,30.36,NNW,338,0.2,0.7,58,0.00,,,0.00,WUHU216HW,2013-01-23 17:29:00,
2013-01-23 10:34:00,38.9,25.3,30.36,North,0,0.0,0.7,58,0.00,,,0.00,WUHU216HW,2013-01-23 17:34:00,
2013-01-23 10:39:00,39.6,25.1,30.36,NNE,23,0.4,0.9,56,0.00,,,0.00,WUHU216HW,2013-01-23 17:39:00,
2013-01-23 10:44:00,40.5,25.5,30.36,East,90,0.0,1.1,55,0.00,,,0.00,WUHU216HW,2013-01-23 17:44:00,
2013-01-23 10:49:00,41.0,26.0,30.35,SSW,203,0.9,1.1,55,0.00,,,0.00,WUHU216HW,2013-01-23 17:49:00,
2013-01-23 10:54:00,41.8,26.3,30.35,South,180,0.9,1.1,54,0.00,,,0.00,WUHU216HW,2013-01-23 17:54:00,
2013-01-23 10:59:00,42.7,26.3,30.35,SE,135,1.1,1.3,52,0.00,,,0.00,WUHU216HW,2013-01-23 17:59:00,
2013-01-23 11:04:00,43.4,26.0,30.35,SSE,158,2.5,2.7,50,0.00,,,0.00,WUHU216HW,2013-01-23 18:04:00,
2013-01-23 11:09:00,43.7,26.4,30.35,SSE,158,2.7,3.4,50,0.00,,,0.00,WUHU216HW,2013-01-23 18:09:00,
2013-01-23 11:14:00,44.3,26.3,30.35,SE,135,2.5,3.4,49,0.00,,,0.00,WUHU216HW,2013-01-23 18:14:00,
2013-01-23 11:19:00,44.6,26.6,30.35,SE,135,2.5,3.6,49,0.00,,,0.00,WUHU216HW,2013-01-23 18:19:00,
2013-01-23 11:24:00,45.0,26.5,30.35,SSE,158,1.8,4.5,48,0.00,,,0.00,WUHU216HW,2013-01-23 18:24:00,
2013-01-23 11:29:00,45.5,26.9,30.35,SSE,158,2.0,4.5,48,0.00,,,0.00,WUHU216HW,2013-01-23 18:29:00,
2013-01-23 11:34:00,46.1,26.8,30.34,SE,135,2.0,2.9,47,0.00,,,0.00,WUHU216HW,2013-01-23 18:34:00,
2013-01-23 11:39:00,46.4,26.6,30.34,SSE,158,1.3,2.9,46,0.00,,,0.00,WUHU216HW,2013-01-23 18:39:00,
2013-01-23 11:44:00,47.0,26.6,30.34,SSE,158,0.0,2.9,45,0.00,,,0.00,WUHU216HW,2013-01-23 18:44:00,
2013-01-23 11:49:00,47.2,26.2,30.34,South,180,1.8,1.8,44,0.00,,,0.00,WUHU216HW,2013-01-23 18:49:00,
2013-01-23 11:54:00,47.5,26.6,30.34,SSE,158,1.8,1.8,44,0.00,,,0.00,WUHU216HW,2013-01-23 18:54:00,
2013-01-23 11:59:00,47.9,26.3,30.34,SSE,158,1.1,1.8,43,0.00,,,0.00,WUHU216HW,2013-01-23 18:59:00,
2013-01-23 12:04:00,48.1,25.9,30.34,SE,135,0.4,2.2,42,0.00,,,0.00,WUHU216HW,2013-01-23 19:04:00,
2013-01-23 12:09:00,48.6,25.9,30.34,ESE,113,0.7,2.2,41,0.00,,,0.00,WUHU216HW,2013-01-23 19:09:00,
2013-01-23 12:14:00,49.3,26.0,30.34,NNW,338,0.4,2.2,40,0.00,,,0.00,WUHU216HW,2013-01-23 19:14:00,
2013-01-23 12:19:00,50.0,25.9,30.33,NE,45,1.1,1.8,39,0.00,,,0.00,WUHU216HW,2013-01-23 19:19:00,
2013-01-23 12:24:00,50.8,24.6,30.33,NNW,338,1.3,1.8,36,0.00,,,0.00,WUHU216HW,2013-01-23 19:24:00,
2013-01-23 12:29:00,51.3,26.4,30.33,NE,45,0.4,2.0,38,0.00,,,0.00,WUHU216HW,2013-01-23 19:29:00,
2013-01-23 12:34:00,51.5,27.3,30.32,SSW,203,0.4,2.5,39,0.00,,,0.00,WUHU216HW,2013-01-23 19:34:00,
2013-01-23 12:39:00,51.8,25.6,30.32,West,270,1.6,3.6,36,0.00,,,0.00,WUHU216HW,2013-01-23 19:39:00,
2013-01-23 12:44:00,52.4,26.0,30.32,SW,225,2.7,3.6,36,0.00,,,0.00,WUHU216HW,2013-01-23 19:44:00,
2013-01-23 12:49:00,52.6,24.1,30.31,NW,315,1.6,3.1,33,0.00,,,0.00,WUHU216HW,2013-01-23 19:49:00,
2013-01-23 12:54:00,52.9,24.5,30.31,NW,315,2.9,4.0,33,0.00,,,0.00,WUHU216HW,2013-01-23 19:54:00,
2013-01-23 12:59:00,53.3,24.1,30.31,West,270,2.5,4.7,32,0.00,,,0.00,WUHU216HW,2013-01-23 19:59:00,
2013-01-23 13:04:00,53.5,24.9,30.31,West,270,2.5,4.7,33,0.00,,,0.00,WUHU216HW,2013-01-23 20:04:00,
2013-01-23 13:09:00,53.8,23.9,30.31,West,270,5.1,5.1,31,0.00,,,0.00,WUHU216HW,2013-01-23 20:09:00,
2013-01-23 13:14:00,54.2,24.1,30.31,SW,225,5.4,8.1,31,0.00,,,0.00,WUHU216HW,2013-01-23 20:14:00,
2013-01-23 13:19:00,54.4,22.7,30.31,NW,315,5.4,8.1,29,0.00,,,0.00,WUHU216HW,2013-01-23 20:19:00,
2013-01-23 13:24:00,54.7,24.0,30.30,South,180,3.1,8.1,30,0.00,,,0.00,WUHU216HW,2013-01-23 20:24:00,
2013-01-23 13:29:00,54.5,25.1,30.30,WSW,248,1.1,8.5,32,0.00,,,0.00,WUHU216HW,2013-01-23 20:29:00,
2013-01-23 13:34:00,54.2,24.1,30.30,SW,225,2.9,8.5,31,0.00,,,0.00,WUHU216HW,2013-01-23 20:34:00,
2013-01-23 13:39:00,53.6,24.4,30.30,WSW,248,2.5,7.2,32,0.00,,,0.00,WUHU216HW,2013-01-23 20:39:00,
2013-01-23 13:44:00,53.3,23.4,30.30,WSW,248,4.0,9.2,31,0.00,,,0.00,WUHU216HW,2013-01-23 20:44:00,
2013-01-23 13:49:00,53.3,24.1,30.30,South,180,2.5,9.2,32,0.00,,,0.00,WUHU216HW,2013-01-23 20:49:00,
2013-01-23 13:54:00,53.3,23.4,30.29,WSW,248,3.8,6.0,31,0.00,,,0.00,WUHU216HW,2013-01-23 20:54:00,
2013-01-23 13:59:00,53.5,24.2,30.29,WSW,248,4.0,6.5,32,0.00,,,0.00,WUHU216HW,2013-01-23 20:59:00,
2013-01-23 14:04:00,53.6,24.4,30.29,SW,225,1.8,6.5,32,0.00,,,0.00,WUHU216HW,2013-01-23 21:04:00,
2013-01-23 14:09:00,53.5,25.7,30.29,SW,225,2.2,6.0,34,0.00,,,0.00,WUHU216HW,2013-01-23 21:09:00,
2013-01-23 14:14:00,53.3,24.8,30.29,NW,315,2.0,6.9,33,0.00,,,0.00,WUHU216HW,2013-01-23 21:14:00,
2013-01-23 14:19:00,53.3,24.8,30.29,SW,225,6.9,6.9,33,0.00,,,0.00,WUHU216HW,2013-01-23 21:19:00,
2013-01-23 14:24:00,53.1,25.3,30.29,WSW,248,4.9,6.9,34,0.00,,,0.00,WUHU216HW,2013-01-23 21:24:00,
2013-01-23 14:29:00,52.9,25.1,30.29,South,180,1.3,7.6,34,0.00,,,0.00,WUHU216HW,2013-01-23 21:29:00,
2013-01-23 14:34:00,52.9,26.5,30.29,SW,225,3.6,7.6,36,0.00,,,0.00,WUHU216HW,2013-01-23 21:34:00,
2013-01-23 14:39:00,52.9,25.8,30.29,West,270,9.2,9.2,35,0.00,,,0.00,WUHU216HW,2013-01-23 21:39:00,
2013-01-23 14:44:00,52.9,25.8,30.29,SW,225,3.6,9.2,35,0.00,,,0.00,WUHU216HW,2013-01-23 21:44:00,
2013-01-23 14:49:00,52.9,24.5,30.29,West,270,9.2,9.2,33,0.00,,,0.00,WUHU216HW,2013-01-23 21:49:00,
2013-01-23 14:54:00,53.1,25.3,30.29,WSW,248,4.0,9.4,34,0.00,,,0.00,WUHU216HW,2013-01-23 21:54:00,
2013-01-23 14:59:00,52.9,26.5,30.29,WSW,248,4.5,9.4,36,0.00,,,0.00,WUHU216HW,2013-01-23 21:59:00,
2013-01-23 15:04:00,52.2,25.8,30.29,WSW,248,4.9,9.4,36,0.00,,,0.00,WUHU216HW,2013-01-23 22:04:00,
2013-01-23 15:09:00,51.8,25.6,30.29,SSW,203,3.1,8.7,36,0.00,,,0.00,WUHU216HW,2013-01-23 22:09:00,
2013-01-23 15:14:00,51.7,26.0,30.29,WSW,248,4.7,7.8,37,0.00,,,0.00,WUHU216HW,2013-01-23 22:14:00,
2013-01-23 15:19:00,51.7,25.4,30.29,WSW,248,1.1,5.6,36,0.00,,,0.00,WUHU216HW,2013-01-23 22:19:00,
2013-01-23 15:24:00,51.7,26.0,30.29,WSW,248,1.3,5.6,37,0.00,,,0.00,WUHU216HW,2013-01-23 22:24:00,
2013-01-23 15:29:00,51.7,26.0,30.29,SW,225,3.6,7.6,37,0.00,,,0.00,WUHU216HW,2013-01-23 22:29:00,
2013-01-23 15:34:00,51.5,25.9,30.29,WSW,248,1.8,7.6,37,0.00,,,0.00,WUHU216HW,2013-01-23 22:34:00,
2013-01-23 15:39:00,51.3,25.8,30.29,West,270,1.1,5.8,37,0.00,,,0.00,WUHU216HW,2013-01-23 22:39:00,
2013-01-23 15:44:00,51.3,25.8,30.29,SSE,158,2.2,6.3,37,0.00,,,0.00,WUHU216HW,2013-01-23 22:44:00,
2013-01-23 15:49:00,51.1,25.6,30.29,WSW,248,4.9,6.9,37,0.00,,,0.00,WUHU216HW,2013-01-23 22:49:00,
2013-01-23 15:54:00,50.8,25.2,30.29,WSW,248,2.0,7.2,37,0.00,,,0.00,WUHU216HW,2013-01-23 22:54:00,
2013-01-23 15:59:00,50.8,25.2,30.29,WSW,248,2.0,7.2,37,0.04,,,0.04,WUHU216HW,2013-01-23 22:59:00,
2013-01-23 16:04:00,50.8,25.9,30.29,West,270,5.6,5.6,38,0.04,,,0.04,WUHU216HW,2013-01-23 23:04:00,
2013-01-23 16:09:00,50.6,25.1,30.29,SW,225,2.7,5.6,37,0.04,,,0.04,WUHU216HW,2013-01-23 23:09:00,
2013-01-23 16:14:00,50.6,25.1,30.29,SSW,203,5.6,5.8,37,0.04,,,0.04,WUHU216HW,2013-01-23 23:14:00,
2013-01-23 16:19:00,50.6,25.1,30.29,SSW,203,2.0,5.8,37,0.04,,,0.04,WUHU216HW,2013-01-23 23:19:00,
2013-01-23 16:24:00,50.4,25.6,30.29,SW,225,5.1,6.3,38,0.04,,,0.04,WUHU216HW,2013-01-23 23:24:00,
2013-01-23 16:29:00,50.4,25.6,30.29,WSW,248,1.1,6.3,38,0.04,,,0.04,WUHU216HW,2013-01-23 23:29:00,
2013-01-23 16:34:00,50.6,25.7,30.29,WSW,248,4.5,4.7,38,0.04,,,0.04,WUHU216HW,2013-01-23 23:34:00,
2013-01-23 16:39:00,50.6,25.7,30.29,West,270,3.6,5.6,38,0.04,,,0.04,WUHU216HW,2013-01-23 23:39:00,
2013-01-23 16:44:00,50.4,25.6,30.29,WSW,248,1.1,5.6,38,0.04,,,0.04,WUHU216HW,2013-01-23 23:44:00,
2013-01-23 16:49:00,50.2,25.5,30.29,WSW,248,2.0,5.4,38,0.04,,,0.04,WUHU216HW,2013-01-23 23:49:00,
2013-01-23 16:54:00,50.2,25.5,30.29,SW,225,3.1,5.4,38,0.04,,,0.04,WUHU216HW,2013-01-23 23:54:00,
2013-01-23 16:59:00,50.2,25.5,30.29,SW,225,2.2,4.3,38,0.00,,,0.04,WUHU216HW,2013-01-23 23:59:00,
2013-01-23 17:04:00,50.0,25.9,30.29,West,270,4.0,4.5,39,0.00,,,0.04,WUHU216HW,2013-01-24 00:04:00,
2013-01-23 17:09:00,49.9,25.1,30.29,WSW,248,2.5,4.7,38,0.00,,,0.04,WUHU216HW,2013-01-24 00:09:00,
2013-01-23 17:14:00,49.7,24.9,30.29,SSW,203,1.8,4.7,38,0.00,,,0.04,WUHU216HW,2013-01-24 00:14:00,
2013-01-23 17:19:00,49.3,24.7,30.29,West,270,3.8,4.9,38,0.00,,,0.04,WUHU216HW,2013-01-24 00:19:00,
2013-01-23 17:24:00,49.1,24.5,30.29,SW,225,2.0,4.9,38,0.00,,,0.04,WUHU216HW,2013-01-24 00:24:00,
2013-01-23 17:29:00,48.8,24.9,30.29,SSW,203,0.7,3.8,39,0.00,,,0.04,WUHU216HW,2013-01-24 00:29:00,
2013-01-23 17:34:00,48.2,25.0,30.30,SSW,203,0.9,2.9,40,0.00,,,0.04,WUHU216HW,2013-01-24 00:34:00,
2013-01-23 17:39:00,47.5,25.5,30.29,South,180,1.8,2.5,42,0.00,,,0.04,WUHU216HW,2013-01-24 00:39:00,
2013-01-23 17:44:00,46.6,25.2,30.29,South,180,1.6,2.5,43,0.00,,,0.04,WUHU216HW,2013-01-24 00:44:00,
2013-01-23 17:49:00,45.9,25.7,30.29,South,180,2.5,2.5,45,0.00,,,0.04,WUHU216HW,2013-01-24 00:49:00,
2013-01-23 17:54:00,45.0,25.4,30.30,SSE,158,1.6,3.8,46,0.00,,,0.04,WUHU216HW,2013-01-24 00:54:00,
2013-01-23 17:59:00,44.3,25.2,30.30,South,180,2.7,3.8,47,0.00,,,0.04,WUHU216HW,2013-01-24 00:59:00,
2013-01-23 18:04:00,43.7,25.8,30.29,South,180,1.1,3.4,49,0.00,,,0.04,WUHU216HW,2013-01-24 01:04:00,
2013-01-23 18:09:00,43.2,25.4,30.30,South,180,1.3,3.4,49,0.00,,,0.04,WUHU216HW,2013-01-24 01:09:00,
2013-01-23 18:14:00,42.8,25.6,30.30,South,180,2.0,2.9,50,0.00,,,0.04,WUHU216HW,2013-01-24 01:14:00,
2013-01-23 18:19:00,42.5,25.7,30.30,SSW,203,1.1,2.9,51,0.00,,,0.04,WUHU216HW,2013-01-24 01:19:00,
2013-01-23 18:24:00,42.1,25.3,30.30,South,180,1.8,2.5,51,0.00,,,0.04,WUHU216HW,2013-01-24 01:24:00,
2013-01-23 18:29:00,41.8,25.4,30.30,SSE,158,1.3,2.5,52,0.00,,,0.04,WUHU216HW,2013-01-24 01:29:00,
2013-01-23 18:34:00,41.4,25.5,30.30,SSE,158,0.0,2.0,53,0.00,,,0.04,WUHU216HW,2013-01-24 01:34:00,
2013-01-23 18:39:00,41.2,25.3,30.29,South,180,0.0,1.3,53,0.00,,,0.04,WUHU216HW,2013-01-24 01:39:00,
2013-01-23 18:44:00,40.9,25.4,30.29,South,180,1.8,2.0,54,0.00,,,0.04,WUHU216HW,2013-01-24 01:44:00,
2013-01-23 18:49:00,40.7,25.7,30.29,SSW,203,1.3,2.0,55,0.00,,,0.04,WUHU216HW,2013-01-24 01:49:00,
2013-01-23 18:54:00,40.3,25.7,30.29,SSE,158,1.1,1.8,56,0.00,,,0.04,WUHU216HW,2013-01-24 01:54:00,
2013-01-23 18:59:00,40.1,25.6,30.29,South,180,1.1,1.6,56,0.00,,,0.04,WUHU216HW,2013-01-24 01:59:00,
2013-01-23 19:04:00,39.8,25.7,30.30,South,180,2.5,2.5,57,0.00,,,0.04,WUHU216HW,2013-01-24 02:04:00,
2013-01-23 19:09:00,39.6,25.5,30.29,SSE,158,0.4,2.5,57,0.00,,,0.04,WUHU216HW,2013-01-24 02:09:00,
2013-01-23 19:14:00,39.4,25.7,30.29,SSE,158,1.1,2.5,58,0.00,,,0.04,WUHU216HW,2013-01-24 02:14:00,
2013-01-23 19:19:00,39.1,25.8,30.29,SSW,203,0.0,1.6,59,0.00,,,0.04,WUHU216HW,2013-01-24 02:19:00,
2013-01-23 19:24:00,38.9,25.8,30.29,SE,135,0.4,1.6,59,0.00,,,0.04,WUHU216HW,2013-01-24 02:24:00,
2013-01-23 19:29:00,38.7,25.6,30.29,SSE,158,0.4,1.6,59,0.00,,,0.04,WUHU216HW,2013-01-24 02:29:00,
2013-01-23 19:34:00,38.5,25.8,30.29,SSE,158,0.0,1.3,60,0.00,,,0.04,WUHU216HW,2013-01-24 02:34:00,
2013-01-23 19:39:00,38.3,25.7,30.29,SSE,158,0.4,1.1,60,0.00,,,0.04,WUHU216HW,2013-01-24 02:39:00,
2013-01-23 19:44:00,38.2,25.5,30.30,South,180,0.0,1.1,60,0.00,,,0.04,WUHU216HW,2013-01-24 02:44:00,
2013-01-23 19:49:00,38.0,25.8,30.30,SSE,158,1.1,1.8,61,0.00,,,0.04,WUHU216HW,2013-01-24 02:49:00,
2013-01-23 19:54:00,37.8,25.6,30.30,South,180,1.1,1.8,61,0.00,,,0.04,WUHU216HW,2013-01-24 02:54:00,
2013-01-23 19:59:00,37.8,25.9,30.30,SSW,203,1.1,1.8,62,0.00,,,0.04,WUHU216HW,2013-01-24 02:59:00,
2013-01-23 20:04:00,37.8,25.9,30.30,SSE,158,1.1,1.8,62,0.00,,,0.04,WUHU216HW,2013-01-24 03:04:00,
2013-01-23 20:09:00,37.4,25.2,30.30,SSE,158,1.1,1.3,61,0.00,,,0.04,WUHU216HW,2013-01-24 03:09:00,
2013-01-23 20:14:00,37.4,25.6,30.30,SSE,158,0.4,1.8,62,0.00,,,0.04,WUHU216HW,2013-01-24 03:14:00,
2013-01-23 20:19:00,37.3,25.5,30.30,SSE,158,1.3,1.8,62,0.00,,,0.04,WUHU216HW,2013-01-24 03:19:00,
2013-01-23 20:24:00,37.1,25.3,30.30,SE,135,0.0,1.6,62,0.00,,,0.04,WUHU216HW,2013-01-24 03:24:00,
2013-01-23 20:29:00,36.7,24.9,30.30,SE,135,0.0,1.6,62,0.00,,,0.04,WUHU216HW,2013-01-24 03:29:00,
2013-01-23 20:34:00,36.7,25.3,30.30,SE,135,0.0,0.0,63,0.00,,,0.04,WUHU216HW,2013-01-24 03:34:00,
2013-01-23 20:39:00,36.5,25.1,30.30,SSE,158,0.4,0.7,63,0.00,,,0.04,WUHU216HW,2013-01-24 03:39:00,
2013-01-23 20:44:00,36.4,25.4,30.30,SE,135,0.7,1.1,64,0.00,,,0.04,WUHU216HW,2013-01-24 03:44:00,
2013-01-23 20:49:00,36.4,25.4,30.30,SSE,158,0.4,1.1,64,0.00,,,0.04,WUHU216HW,2013-01-24 03:49:00,
2013-01-23 20:54:00,36.2,25.2,30.31,SE,135,1.1,1.8,64,0.00,,,0.04,WUHU216HW,2013-01-24 03:54:00,
2013-01-23 20:59:00,36.0,25.4,30.30,ESE,113,0.0,1.8,65,0.00,,,0.04,WUHU216HW,2013-01-24 03:59:00,
2013-01-23 21:04:00,36.0,25.4,30.30,SE,135,0.7,1.1,65,0.00,,,0.04,WUHU216HW,2013-01-24 04:04:00,
2013-01-23 21:09:00,35.8,25.6,30.30,ESE,113,1.1,1.8,66,0.00,,,0.04,WUHU216HW,2013-01-24 04:09:00,
2013-01-23 21:14:00,35.8,25.6,30.30,SE,135,1.1,1.8,66,0.00,,,0.04,WUHU216HW,2013-01-24 04:14:00,
2013-01-23 21:19:00,35.8,25.6,30.30,SSE,158,0.0,1.8,66,0.00,,,0.04,WUHU216HW,2013-01-24 04:19:00,
2013-01-23 21:24:00,35.6,25.7,30.30,SSE,158,0.7,1.3,67,0.00,,,0.04,WUHU216HW,2013-01-24 04:24:00,
2013-01-23 21:29:00,35.6,25.7,30.30,SE,135,1.1,1.3,67,0.00,,,0.04,WUHU216HW,2013-01-24 04:29:00,
2013-01-23 21:34:00,35.6,25.7,30.30,SE,135,0.0,1.1,67,0.00,,,0.04,WUHU216HW,2013-01-24 04:34:00,
2013-01-23 21:39:00,35.6,25.7,30.30,SE,135,0.0,1.1,67,0.00,,,0.04,WUHU216HW,2013-01-24 04:39:00,
2013-01-23 21:44:00,35.6,26.1,30.30,SSE,158,1.1,1.3,68,0.00,,,0.04,WUHU216HW,2013-01-24 04:44:00,
2013-01-23 21:49:00,35.5,25.9,30.31,SE,135,0.0,1.3,68,0.00,,,0.04,WUHU216HW,2013-01-24 04:49:00,
2013-01-23 21:54:00,35.5,25.9,30.30,SSE,158,0.0,1.1,68,0.00,,,0.04,WUHU216HW,2013-01-24 04:54:00,
2013-01-23 21:59:00,35.3,25.7,30.30,ESE,113,0.0,0.9,68,0.00,,,0.04,WUHU216HW,2013-01-24 04:59:00,
2013-01-23 22:00:00,35.3,25.7,30.30,SE,135,0.0,0.9,68,0.00,,,0.04,WUHU216HW,2013-01-24 05:00:00,
2013-01-23 22:01:00,35.3,25.7,30.30,SE,135,0.0,0.9,68,0.00,,,0.04,WUHU216HW,2013-01-24 05:01:00,
2013-01-23 22:03:00,35.3,26.1,30.30,SSE,158,0.4,0.9,69,0.00,,,0.04,WUHU216HW,2013-01-24 05:03:00,
2013-01-23 22:08:00,35.3,26.1,30.31,ESE,113,1.1,1.8,69,0.00,,,0.04,WUHU216HW,2013-01-24 05:08:00,
2013-01-23 22:13:00,35.3,26.1,30.31,ESE,113,0.4,1.8,69,0.00,,,0.04,WUHU216HW,2013-01-24 05:13:00,
2013-01-23 22:18:00,35.3,26.1,30.30,SE,135,1.3,1.8,69,0.00,,,0.04,WUHU216HW,2013-01-24 05:18:00,
2013-01-23 22:23:00,35.3,26.1,30.30,SE,135,1.1,1.8,69,0.00,,,0.04,WUHU216HW,2013-01-24 05:23:00,
2013-01-23 22:28:00,35.1,26.3,30.30,SE,135,0.0,1.8,70,0.00,,,0.04,WUHU216HW,2013-01-24 05:28:00,
2013-01-23 22:33:00,35.3,26.5,30.31,SE,135,0.0,1.3,70,0.00,,,0.04,WUHU216HW,2013-01-24 05:33:00,
2013-01-23 22:38:00,35.1,26.3,30.30,SE,135,0.9,1.8,70,0.00,,,0.04,WUHU216HW,2013-01-24 05:38:00,
2013-01-23 22:43:00,35.1,26.7,30.30,SE,135,2.5,2.5,71,0.00,,,0.04,WUHU216HW,2013-01-24 05:43:00,
2013-01-23 22:48:00,35.1,26.7,30.30,SE,135,1.3,2.5,71,0.00,,,0.04,WUHU216HW,2013-01-24 05:48:00,
2013-01-23 22:53:00,35.1,26.7,30.31,SSW,203,2.0,2.5,71,0.00,,,0.04,WUHU216HW,2013-01-24 05:53:00,
2013-01-23 22:58:00,35.1,26.7,30.30,SSW,203,1.1,2.0,71,0.00,,,0.04,WUHU216HW,2013-01-24 05:58:00,
2013-01-23 23:03:00,35.1,26.7,30.31,WSW,248,2.0,2.0,71,0.00,,,0.04,WUHU216HW,2013-01-24 06:03:00,
2013-01-23 23:08:00,35.3,26.8,30.31,WNW,293,4.7,4.7,71,0.00,,,0.04,WUHU216HW,2013-01-24 06:08:00,
2013-01-23 23:13:00,36.0,26.8,30.30,West,270,3.4,6.7,69,0.00,,,0.04,WUHU216HW,2013-01-24 06:13:00,
2013-01-23 23:18:00,36.5,26.7,30.30,West,270,3.6,6.7,67,0.00,,,0.04,WUHU216HW,2013-01-24 06:18:00,
2013-01-23 23:23:00,36.9,27.0,30.30,WSW,248,2.9,5.8,67,0.00,,,0.04,WUHU216HW,2013-01-24 06:23:00,
2013-01-23 23:28:00,37.4,26.7,30.30,WSW,248,4.3,5.8,65,0.00,,,0.04,WUHU216HW,2013-01-24 06:28:00,
2013-01-23 23:33:00,37.8,26.6,30.30,SW,225,3.1,6.7,64,0.00,,,0.04,WUHU216HW,2013-01-24 06:33:00,
2013-01-23 23:38:00,37.8,26.6,30.30,West,270,2.5,6.7,64,0.00,,,0.04,WUHU216HW,2013-01-24 06:38:00,
2013-01-23 23:43:00,38.0,26.5,30.30,WSW,248,2.9,5.1,63,0.00,,,0.04,WUHU216HW,2013-01-24 06:43:00,
2013-01-23 23:48:00,38.2,26.7,30.29,WSW,248,5.1,5.1,63,0.00,,,0.04,WUHU216HW,2013-01-24 06:48:00,
2013-01-23 23:53:00,38.2,26.7,30.29,WSW,248,2.7,5.8,63,0.00,,,0.04,WUHU216HW,2013-01-24 06:53:00,
2013-01-23 23:58:00,38.3,26.8,30.30,WSW,248,4.3,6.9,63,0.00,,,0.04,WUHU216HW,2013-01-24 06:58:00,